Wind_Speed
2 3 2 1 2 4 2 3 1 0 0 1 1 2 2 2 2 5 8 8 5 7 9 9 10 8 7 7 10 13 12 8 4 2 5 11 24 25 24 29 28 26 26 24 23 22 21 21 20 18 16 16 16 16 16 16 16 15 15 14 14 14 13 13 12 11 10 9 9 9 8 8 7 6 5 5 6 5 4 5 6 7 6 4 5 5 4 3 4 4 4 4 6 7 7 6 5
1 1 1 2 3 4 0 1 1 1 0 0 1 1 1 1 2 3 4 6 7 9 9 9 10 10 10 11 12 14 13 12 12 10 10 23 26 23 27 28 26 27 26 24 23 22 21 21 20 18 17 17 16 16 16 16 16 16 15 14 13 13 13 13 12 10 8 7 7 7 7 7 7 6 6 6 5 4 4 4 5 5 5 4 4 4 3 2 2 3 3 3 4 5 5 5 5
2 3 2 1 2 2 1 1 0 1 2 2 1 1 1 1 3 4 6 6 13 12 11 11 10 10 11 12 12 12 11 12 17 14 13 25 21 21 29 26 27 26 25 24 22 22 21 22 19 18 18 18 17 16 15 14 14 15 15 14 13 12 13 12 11 10 8 7 6 7 8 8 8 8 7 6 5 3 3 3 4 4 4 4 4 3 3 1 1 2 1 1 1 3 4 4 4
2 4 2 2 1 1 0 1 1 0 3 2 2 1 0 2 4 9 8 9 13 12 11 11 9 9 9 12 12 11 11 11 17 17 12 19 20 25 29 25 27 24 24 23 21 22 21 21 20 19 19 18 18 16 14 14 14 15 14 14 13 12 12 11 10 9 8 7 8 8 9 9 9 8 7 5 4 2 2 3 3 4 4 4 4 3 2 1 1 1 0 1 0 1 2 3 3
2 4 3 2 1 0 0 1 2 0 2 1 3 2 2 4 7 11 12 11 11 10 11 10 9 8 8 10 8 7 10 12 16 18 16 21 26 28 28 26 25 24 24 22 22 22 21 22 20 19 19 18 17 16 14 14 15 15 14 13 12 12 11 10 10 8 8 8 8 9 8 8 8 7 6 4 3 3 3 3 4 4 4 4 4 3 2 1 0 1 1 1 1 0 1 2 2
3 1 2 0 1 1 1 1 0 1 3 2 3 2 3 4 9 12 12 12 11 11 11 10 11 10 9 9 8 8 11 13 14 17 21 26 29 28 27 26 24 24 23 22 22 21 22 22 20 19 18 18 17 16 15 14 14 13 13 12 12 11 10 10 9 8 8 8 7 7 7 7 7 5 4 4 4 4 4 5 5 4 4 4 4 3 2 1 1 1 1 1 1 1 0 1 0
4 1 1 1 0 1 1 1 2 3 3 3 2 3 2 3 8 12 11 12 10 10 10 10 12 11 9 9 9 11 16 17 14 18 25 29 29 28 26 25 25 25 23 23 22 22 23 22 20 19 18 18 17 16 15 15 14 13 13 12 12 11 10 9 8 8 8 7 6 6 6 6 5 4 4 5 5 5 4 4 4 3 3 3 3 3 2 2 2 2 2 2 1 0 1 1 1
6 3 1 1 1 0 1 2 3 2 3 2 1 4 5 6 8 10 10 10 8 9 10 10 11 11 10 10 8 10 18 20 19 25 29 30 29 27 25 25 26 24 23 23 22 22 22 21 21 19 18 18 17 16 15 15 14 13 13 12 11 10 9 9 8 8 7 6 5 5 5 4 3 4 5 5 5 4 4 3 3 3 3 3 3 3 3 3 3 3 3 2 1 1 2 2 2
7 4 2 0 1 1 2 1 3 2 2 2 2 5 6 8 7 8 10 9 7 10 12 9 9 10 11 12 10 9 15 21 25 29 29 29 28 25 24 25 25 24 24 23 22 23 21 21 20 19 18 18 17 16 15 15 14 13 13 12 11 10 9 9 8 7 6 6 5 5 3 3 3 4 4 4 4 3 2 3 3 3 3 3 3 3 3 3 3 3 2 2 2 2 3 3 3
2 2 1 0 2 3 2 1 2 1 1 3 1 5 6 7 7 9 10 10 9 11 12 11 10 10 12 10 10 10 14 23 28 28 28 28 26 24 24 24 24 24 24 23 22 23 21 20 20 19 18 18 17 16 15 15 14 13 13 12 11 10 10 9 8 7 6 5 5 4 3 2 3 3 3 3 3 2 2 2 2 3 3 3 3 2 3 3 3 3 2 2 2 2 3 3 4
1 1 0 0 2 3 2 3 2 0 2 5 3 3 4 5 8 9 10 11 11 11 12 11 11 11 12 9 8 13 19 24 26 27 28 27 24 23 24 23 23 23 24 23 22 23 22 21 19 18 18 18 18 16 15 15 14 13 13 12 10 10 10 8 7 7 6 5 5 4 3 2 2 2 3 3 3 1 1 1 1 2 2 2 2 1 2 3 3 2 2 2 2 3 3 3 4
1 1 1 1 3 2 2 3 2 2 2 2 2 1 3 4 6 8 9 11 11 10 11 9 9 10 10 8 6 12 20 22 24 27 27 25 23 23 23 22 22 22 23 23 23 22 22 21 19 18 18 17 17 16 15 15 13 12 13 11 10 10 9 8 7 7 6 6 5 4 3 2 2 2 2 2 2 1 0 1 1 2 2 2 2 2 2 2 2 2 2 2 2 2 3 4 4
1 0 0 2 2 1 2 1 1 3 4 1 2 4 4 3 3 6 8 10 10 9 11 9 9 9 8 8 6 9 16 22 24 25 26 24 22 22 22 21 21 22 23 23 22 22 21 21 19 18 18 17 16 15 14 14 12 12 13 11 10 10 9 8 7 6 6 5 4 4 3 2 2 1 1 1 1 1 1 1 1 2 3 3 3 2 2 1 0 1 1 2 2 2 2 3 3
2 1 0 1 1 1 1 2 0 1 3 3 2 2 2 2 5 3 5 7 8 9 9 8 10 10 6 5 6 6 13 22 24 25 25 23 22 22 21 21 21 22 21 21 22 22 21 19 19 18 18 17 15 14 13 13 12 12 12 10 10 9 9 7 7 6 5 5 4 3 2 1 2 3 3 2 1 0 1 1 2 3 5 5 4 4 3 2 2 1 1 1 1 2 2 3 4
3 2 0 1 1 1 1 1 1 1 3 2 2 1 2 1 3 6 7 7 6 7 7 5 5 6 4 5 6 7 14 22 24 24 24 22 21 21 21 21 21 21 20 20 21 21 20 19 18 18 17 15 14 14 13 13 12 12 11 10 10 9 9 7 7 6 5 4 3 2 1 2 3 3 4 3 2 2 1 2 4 5 6 6 6 6 4 3 3 2 2 1 2 3 3 4 5
2 2 1 0 1 1 1 1 0 1 3 2 2 2 3 3 2 3 8 7 5 5 6 3 1 5 6 5 7 12 17 21 23 24 24 22 21 21 21 20 20 20 19 19 20 19 19 19 18 17 17 14 13 12 10 11 11 11 11 10 10 9 8 8 7 6 4 2 1 1 2 1 2 3 5 4 3 5 4 3 6 7 6 6 6 6 5 4 4 4 3 2 3 3 3 4 4
1 2 1 1 1 1 0 1 0 1 2 2 3 3 1 2 1 4 10 11 7 5 6 5 3 6 8 7 9 14 18 20 22 24 23 21 20 20 20 20 20 19 18 19 19 19 19 19 18 17 17 15 13 12 10 8 9 9 9 10 9 8 8 7 6 5 4 2 1 1 1 1 2 3 5 4 5 7 6 7 6 5 5 5 6 6 5 3 3 4 4 4 3 3 3 4 4
2 2 0 2 1 0 1 2 2 1 1 2 3 4 1 2 2 3 8 10 8 7 6 6 4 8 6 9 11 12 17 19 21 23 23 20 19 19 18 19 20 18 18 19 18 19 19 18 18 17 17 16 14 13 11 9 8 6 7 8 7 6 6 5 4 4 3 2 2 2 1 1 1 4 4 3 5 5 6 7 5 5 6 5 6 6 3 3 3 4 4 3 3 3 4 4 4
3 1 1 2 1 2 3 3 2 2 0 1 3 5 2 3 4 4 4 7 7 7 5 6 5 8 8 11 10 10 15 18 20 22 23 21 19 19 19 19 19 19 19 18 19 19 19 19 18 18 18 17 15 13 13 11 9 7 7 7 6 4 4 5 4 4 2 3 5 5 2 2 3 6 5 3 4 4 5 6 6 5 6 6 6 6 4 4 4 3 3 2 3 4 4 4 4
4 3 1 1 3 5 6 5 4 3 0 2 2 5 4 2 1 3 2 6 7 4 1 1 2 5 8 10 10 11 13 16 19 21 23 22 20 21 20 19 20 19 20 18 19 20 19 19 18 18 19 18 17 14 13 12 10 9 10 9 7 5 5 5 4 5 6 6 7 7 6 5 6 6 5 4 4 5 5 6 8 6 5 7 6 7 7 6 6 5 6 5 4 3 4 6 6
3 4 3 4 6 6 7 7 5 3 2 3 2 2 2 4 6 4 6 6 6 4 6 6 7 6 5 7 10 12 12 14 18 20 22 22 20 21 20 20 20 19 20 19 19 20 20 19 19 19 20 19 17 15 14 14 11 11 11 11 10 8 7 7 6 6 8 9 9 8 7 7 7 6 5 5 6 5 6 7 8 6 6 8 7 8 8 6 7 8 10 10 6 4 6 5 5
3 7 8 5 5 6 9 10 7 5 5 4 4 4 2 4 6 8 8 4 4 8 9 9 8 7 5 5 6 10 13 13 17 19 20 21 20 20 20 20 20 20 20 20 19 20 21 20 19 19 20 19 18 16 14 14 13 12 12 12 11 10 10 9 9 9 10 10 9 8 8 8 7 7 7 7 5 6 8 6 5 5 6 7 7 8 7 6 7 8 9 8 7 8 7 2 3
4 7 9 5 4 7 9 9 9 9 7 6 5 6 5 6 6 8 9 5 7 11 12 10 7 8 6 4 3 7 13 14 15 18 19 20 21 21 21 20 20 20 19 20 20 20 21 21 20 20 20 20 19 16 14 14 14 13 12 12 11 10 10 10 9 9 10 11 8 8 8 9 8 9 9 8 5 6 8 5 3 6 6 7 7 7 7 6 6 7 7 6 7 8 7 3 3
7 9 8 5 6 7 7 8 9 8 5 5 4 4 4 6 5 6 7 6 10 12 13 12 9 8 7 4 1 7 10 14 16 18 19 19 20 21 21 21 20 20 20 20 21 20 21 21 21 20 20 20 20 17 15 15 14 13 12 12 12 10 10 10 10 9 9 10 9 8 9 9 9 10 8 7 7 7 6 5 5 7 7 7 7 7 7 7 6 7 7 7 7 7 5 4 3
7 11 9 6 6 5 7 7 6 5 3 4 4 3 4 6 6 7 8 9 10 11 11 13 11 8 5 4 3 8 12 10 15 18 18 17 19 22 21 21 20 20 21 20 20 20 20 21 22 21 20 20 20 18 16 15 14 14 12 12 12 11 11 10 9 10 10 10 10 10 10 10 10 10 9 7 8 7 5 6 7 7 7 6 7 7 7 7 7 6 6 7 7 8 7 6 3
5 13 10 7 7 5 7 8 5 5 5 6 4 4 4 5 7 7 9 11 11 11 11 13 13 11 6 4 5 10 12 9 12 15 18 17 17 21 21 21 21 20 21 20 20 20 20 21 22 22 21 20 19 19 18 15 15 15 14 13 12 12 12 11 10 10 10 10 11 13 13 12 11 11 10 8 7 7 7 9 8 7 8 7 7 8 7 7 8 6 6 8 7 8 9 6 3
4 14 11 7 9 6 6 8 7 6 6 6 4 4 4 2 4 4 9 13 12 13 12 11 12 12 10 7 6 10 12 10 10 11 15 18 17 20 20 20 20 19 20 20 20 19 20 21 21 22 21 20 19 18 19 17 15 15 14 14 13 12 12 11 11 10 11 11 12 14 15 13 12 12 11 10 9 9 10 10 10 8 8 8 7 7 7 7 7 6 8 9 8 8 9 10 6
2 11 10 8 10 7 6 8 7 6 6 5 3 6 5 1 2 3 8 13 12 12 13 12 10 10 13 14 11 11 11 9 10 10 12 15 16 17 19 20 19 19 19 20 20 19 20 21 21 22 21 21 20 18 18 18 16 14 13 14 14 14 13 13 12 11 12 12 12 12 13 13 13 13 12 12 11 10 10 10 11 10 10 9 7 7 7 8 7 7 9 9 8 9 10 11 8
1 6 8 11 10 7 6 7 7 4 5 5 4 6 5 1 2 7 8 9 12 12 12 14 8 6 10 11 9 7 7 8 9 11 12 12 13 15 18 19 18 19 19 19 19 19 20 21 21 22 21 21 21 18 17 18 16 15 14 13 13 14 14 14 13 13 13 13 13 13 13 13 14 14 13 13 13 12 12 12 12 12 12 10 8 8 8 9 10 9 9 9 8 9 10 11 11
5 5 5 8 8 6 6 7 8 5 5 7 5 3 4 4 4 7 8 7 11 10 9 13 9 6 7 7 6 2 5 7 8 6 7 10 11 13 16 18 18 19 18 18 19 19 19 19 20 20 21 21 22 19 17 17 16 15 14 14 13 13 13 13 13 13 14 14 14 15 15 15 15 15 15 14 14 14 14 13 14 13 12 12 10 10 9 9 10 9 8 9 9 9 10 12 12
5 4 3 5 4 6 7 8 8 6 5 8 6 1 5 7 4 5 8 8 9 9 8 12 11 8 6 6 5 3 3 5 7 5 3 7 11 12 15 17 18 19 18 17 19 19 19 18 19 19 20 20 21 21 18 16 16 15 15 15 14 14 14 13 13 13 14 15 15 16 18 18 18 17 16 16 15 15 15 15 15 15 14 13 10 8 9 9 9 9 9 10 9 9 11 12 12
2 3 5 5 5 6 8 7 6 5 6 9 5 2 4 7 5 6 8 8 8 7 7 10 10 8 7 6 5 4 3 3 6 7 6 8 9 11 14 16 17 19 18 17 18 19 20 19 18 17 19 20 20 21 20 17 15 15 15 15 14 14 14 14 14 14 14 14 15 16 18 20 20 18 17 16 16 16 16 16 16 16 16 14 10 9 10 10 10 10 10 10 10 9 10 10 11
3 3 2 4 7 8 7 6 6 7 8 8 4 1 3 5 6 7 8 8 8 7 7 9 9 7 7 6 5 4 3 2 3 4 6 8 8 9 11 14 16 17 17 16 16 17 18 19 18 17 17 19 20 19 20 19 17 15 14 14 14 14 14 14 14 14 15 15 15 16 16 17 18 17 17 17 16 16 17 17 16 16 16 14 12 11 11 10 10 11 10 10 9 9 9 10 11
2 2 2 5 8 8 7 6 7 9 7 6 5 1 3 6 5 6 7 7 7 7 7 8 7 8 7 5 6 5 4 4 3 1 3 5 5 6 8 11 13 15 17 16 15 16 17 17 18 19 17 16 19 20 20 19 18 17 15 15 15 15 15 15 15 15 15 15 15 15 15 14 13 14 16 17 17 17 17 17 17 17 16 14 12 11 11 11 11 11 11 9 8 9 9 10 10
3 3 3 2 6 8 8 7 8 10 7 5 5 2 4 6 4 4 6 7 8 8 8 8 6 9 8 4 5 6 4 4 4 3 3 3 3 5 5 5 4 7 11 12 11 11 13 16 15 18 19 16 16 19 20 19 16 16 16 16 17 18 18 17 17 16 16 15 14 13 13 14 13 14 15 16 17 18 17 18 18 17 17 14 10 10 11 12 11 11 12 11 9 9 10 11 12
6 3 3 3 0 6 10 7 5 6 5 4 4 4 5 6 6 3 3 6 8 7 9 9 6 9 9 5 4 4 5 5 4 5 5 3 2 4 2 3 4 1 2 3 3 2 5 12 13 15 19 17 16 17 19 18 16 16 16 16 17 18 19 19 18 18 17 16 14 12 12 13 15 15 14 16 18 18 18 18 18 17 17 15 11 11 13 12 11 12 12 12 11 11 11 12 13
4 3 4 2 1 5 10 9 6 2 3 3 4 2 5 7 6 5 5 6 7 6 7 9 8 8 9 7 6 5 4 5 5 5 5 4 4 5 4 5 7 5 3 3 3 3 3 6 9 11 14 15 15 16 17 17 16 16 16 17 17 17 18 19 18 17 16 16 16 14 14 16 17 16 15 16 18 18 19 19 19 18 17 16 15 14 14 13 12 11 10 10 10 12 13 12 13
4 6 7 4 3 5 9 9 8 3 4 3 5 2 4 8 4 5 6 5 7 6 4 7 9 8 8 8 8 8 5 4 6 5 4 5 6 6 5 6 7 8 8 7 7 6 6 7 6 5 7 10 11 12 13 13 11 11 14 16 16 15 16 15 16 16 14 15 15 14 15 19 20 18 16 17 19 18 19 20 20 19 17 16 17 16 15 14 14 12 11 10 11 13 13 13 14
6 6 7 3 2 4 8 8 6 4 4 3 5 5 4 9 5 6 5 4 7 9 7 7 9 9 9 7 8 10 7 6 7 6 6 7 8 7 6 6 7 9 10 10 11 10 9 11 10 9 7 8 9 11 11 12 13 13 13 14 13 14 15 12 14 17 16 15 16 16 18 21 21 19 18 18 19 19 20 21 20 18 18 17 17 16 15 15 14 13 13 13 14 14 13 14 15
6 6 6 3 4 3 4 7 6 5 4 1 2 4 5 9 6 6 2 1 4 7 9 10 9 7 8 9 8 9 9 9 8 6 6 8 9 8 8 7 6 8 9 9 11 13 13 13 14 14 13 11 9 12 14 16 21 19 14 12 13 15 16 14 14 17 18 17 19 20 21 22 21 20 20 18 18 18 20 21 21 19 18 19 19 17 16 16 15 14 14 15 14 14 14 14 15
9 7 4 3 5 6 2 3 5 7 7 4 2 4 5 7 7 8 2 1 3 1 6 11 9 6 7 10 9 7 7 7 7 7 6 7 8 9 9 7 7 8 9 9 10 12 14 15 15 16 16 14 11 14 17 20 23 21 16 16 16 15 15 15 14 15 15 16 20 21 19 19 19 20 21 21 19 18 20 22 22 20 19 19 19 18 17 17 16 16 15 16 15 15 15 14 14
8 6 1 4 5 6 5 5 4 4 6 8 5 5 4 7 8 9 6 5 5 2 3 9 11 7 6 9 11 9 7 5 6 8 6 5 5 6 9 9 10 10 9 10 10 11 13 14 15 17 18 17 14 15 18 21 22 20 20 20 18 15 13 13 12 12 12 15 18 17 15 18 18 19 21 23 21 20 21 23 23 22 20 20 19 18 18 17 17 16 16 16 17 17 16 14 14
2 2 2 3 2 4 6 7 4 5 2 9 8 5 1 6 8 10 9 8 7 4 5 7 10 5 4 7 9 7 6 7 7 6 4 5 4 3 6 9 9 10 10 11 12 14 16 16 16 17 19 19 17 16 17 20 21 20 21 22 21 18 14 14 14 13 13 14 16 15 16 18 18 18 20 22 24 24 23 23 23 22 21 21 20 19 19 18 17 17 17 18 18 18 17 15 14
3 5 5 2 3 6 6 7 5 5 2 8 11 5 3 4 7 12 11 10 8 7 6 7 7 1 1 5 7 5 3 7 8 7 5 6 7 6 7 9 9 9 10 12 13 16 17 17 19 19 19 20 19 18 18 20 21 20 21 23 24 22 18 17 17 17 16 15 16 17 19 19 18 18 20 21 23 25 25 23 23 23 22 22 22 21 20 19 18 18 18 19 20 19 18 17 16
7 9 7 5 6 6 6 7 5 5 5 4 7 6 4 1 9 12 11 10 8 8 7 7 7 5 6 5 5 5 3 4 6 8 7 5 7 9 9 11 12 12 12 13 14 19 19 18 21 21 20 22 23 22 21 21 21 21 23 24 25 24 21 19 18 20 21 19 18 19 19 20 19 19 22 22 21 22 24 23 23 24 23 23 23 23 21 20 20 20 19 18 17 18 18 17 17
7 8 8 5 6 6 6 6 5 5 5 5 6 7 4 2 8 9 9 8 8 8 8 6 7 7 7 6 4 2 4 5 3 5 6 6 9 10 9 13 13 12 11 11 12 17 18 16 19 21 23 24 25 25 25 25 23 22 24 25 24 22 22 20 17 19 21 21 21 22 21 22 22 22 25 25 24 24 24 23 24 23 22 22 23 24 23 21 20 21 22 20 17 17 18 17 17
7 7 8 7 8 7 5 5 2 4 5 5 8 8 4 3 5 5 5 6 8 9 8 8 8 7 8 9 8 7 5 4 4 5 9 9 9 10 10 17 21 19 17 17 19 24 24 20 18 20 24 23 22 24 25 27 26 24 24 25 26 24 22 21 19 21 23 23 24 25 25 25 24 25 29 29 27 27 26 24 23 22 21 22 23 24 24 23 21 21 21 20 20 19 19 17 17
6 6 6 6 5 5 5 4 3 4 5 4 7 7 2 1 2 5 6 9 11 10 9 11 11 8 8 9 7 4 2 4 5 5 7 7 5 8 7 8 15 21 25 25 25 26 26 21 13 12 18 20 19 19 21 23 26 26 25 25 27 27 24 23 23 24 25 26 26 25 25 26 25 24 27 28 26 25 26 25 23 22 23 23 24 25 26 24 22 21 20 21 22 22 21 19 18
6 6 5 5 4 3 4 3 4 4 6 7 8 5 2 1 4 8 10 12 11 9 8 9 12 11 8 9 8 5 3 3 4 3 5 5 4 5 3 1 2 8 14 14 10 8 7 6 6 7 12 16 18 18 17 18 21 23 24 24 26 27 27 28 28 28 29 31 30 26 24 23 26 27 26 27 27 25 26 28 26 24 24 25 25 26 27 26 24 22 21 20 21 21 21 21 20
7 6 4 4 4 4 4 4 5 5 7 9 4 1 3 1 6 10 13 13 10 9 9 7 9 10 7 6 7 7 6 6 6 4 3 2 2 2 1 2 4 7 7 3 3 2 2 4 5 5 6 9 13 15 15 17 18 20 22 23 25 26 28 31 32 33 35 34 30 27 25 22 23 28 28 26 26 25 25 28 28 27 27 28 26 26 27 27 26 24 22 20 20 20 19 19 20
5 4 4 5 4 5 4 3 5 5 5 7 4 2 4 2 7 11 12 12 10 10 11 9 8 8 6 5 6 7 8 8 7 5 3 2 3 3 3 4 6 6 3 2 4 2 2 4 3 3 4 6 8 10 12 15 17 18 21 23 25 27 29 31 33 36 37 32 29 29 30 28 25 24 26 25 23 24 25 27 30 30 30 32 31 28 26 26 27 25 24 23 20 19 19 20 20
4 4 3 3 4 5 5 4 7 8 6 6 5 3 4 6 9 11 11 11 11 10 10 10 9 8 6 5 5 4 5 6 6 7 6 5 4 4 4 4 5 4 1 2 5 5 5 5 3 4 6 7 9 10 11 13 15 17 19 22 24 27 29 31 33 35 36 33 33 35 36 35 30 26 25 25 25 26 26 27 29 31 31 32 35 33 28 26 26 25 24 24 22 19 19 20 20
3 4 3 4 5 7 6 6 7 8 7 4 4 2 7 10 8 11 13 12 12 11 10 10 9 8 6 5 4 2 2 4 3 3 5 2 4 3 4 5 4 4 4 5 6 6 6 5 5 7 8 8 9 10 12 13 15 17 19 21 23 25 27 31 32 32 34 36 36 36 35 33 31 28 27 27 27 28 28 27 27 30 31 32 34 35 31 27 26 26 24 23 23 20 18 19 20
6 5 5 8 4 6 4 5 5 6 7 4 4 6 4 8 5 8 12 11 10 10 10 10 9 7 6 6 6 2 1 3 1 0 3 3 4 4 5 4 4 5 5 6 7 7 7 6 8 9 8 9 10 11 13 14 15 16 18 19 22 24 25 28 29 30 32 36 37 38 36 35 32 29 29 28 27 27 29 29 27 27 29 31 33 34 32 29 27 27 25 23 23 22 21 20 19
10 7 7 6 4 4 3 4 5 5 6 4 6 8 1 6 4 8 9 8 11 9 7 10 9 6 7 6 8 5 2 2 1 3 3 3 4 5 3 4 6 6 5 7 9 9 8 9 9 8 8 10 12 14 15 15 16 17 17 19 21 23 24 23 23 27 31 34 37 40 40 39 35 30 29 30 30 29 29 30 30 27 26 27 30 32 32 29 28 27 26 24 23 23 23 22 20
11 8 7 5 4 3 3 4 4 5 6 5 7 6 3 5 3 8 6 5 12 12 7 7 4 6 7 6 6 6 4 3 1 3 4 5 5 3 4 6 6 5 7 9 10 9 10 11 11 10 11 12 14 15 16 16 17 17 18 20 21 23 25 24 21 22 28 33 35 38 40 39 35 31 30 31 32 32 30 29 29 29 28 27 28 30 32 30 29 28 27 25 22 22 24 24 21
7 5 4 3 3 2 3 5 4 5 6 5 6 4 4 5 4 7 5 3 9 13 9 5 3 4 5 6 6 6 4 1 2 3 5 6 5 6 8 8 6 6 9 9 9 10 11 12 12 13 14 14 15 16 16 17 18 18 19 20 21 23 23 24 22 21 24 30 32 33 36 36 33 31 31 33 35 34 32 31 30 29 29 29 29 30 31 30 29 29 28 27 24 22 23 24 23
2 4 5 6 7 6 6 6 4 5 6 5 6 4 4 6 6 8 9 9 7 7 6 4 2 3 8 7 6 6 2 1 3 5 6 5 5 7 8 7 7 8 9 9 9 11 11 12 13 14 15 15 16 16 17 18 19 19 21 21 22 23 23 23 24 22 23 26 29 30 33 33 31 31 32 34 36 35 33 32 31 29 29 30 31 31 29 28 29 30 29 27 25 24 22 22 23
Wind_Direction
119 147 131 257 312 357 59 107 120 186 250 295 114 136 151 139 131 149 139 132 120 108 113 128 123 117 136 117 94 71 51 50 44 112 107 125 143 149 142 134 134 132 131 132 132 129 128 126 125 129 127 124 123 120 118 116 116 119 120 119 116 115 116 119 120 113 108 108 108 107 106 110 105 102 100 100 99 84 77 85 86 84 74 60 68 73 71 60 47 48 49 54 50 45 44 40 43
185 196 245 287 18 29 335 118 112 162 132 84 97 88 128 136 104 121 169 143 121 125 120 109 109 113 115 100 86 73 60 62 78 88 106 134 142 140 137 135 132 130 130 132 130 129 129 128 129 131 126 124 125 123 118 112 114 115 116 118 118 118 118 121 123 120 114 115 120 115 108 108 104 101 99 97 91 75 62 63 73 83 87 71 61 70 70 47 34 39 39 48 43 39 42 38 39
283 325 305 346 29 55 355 309 226 156 144 133 97 305 281 197 121 160 222 134 115 124 116 108 101 93 95 90 83 83 81 81 98 102 119 139 139 136 137 135 131 128 129 130 129 130 131 130 132 133 127 126 126 125 120 112 115 117 118 119 119 120 121 124 127 128 125 120 117 110 106 107 104 99 93 90 87 79 68 54 58 68 75 74 67 74 85 81 42 51 52 73 45 34 44 41 41
270 322 327 32 6 98 1 246 279 288 137 129 111 136 113 227 186 162 163 116 117 127 117 110 87 70 85 95 92 87 95 97 111 116 129 142 138 137 138 132 129 127 128 130 129 131 133 133 133 133 129 129 128 127 122 114 115 118 119 118 117 117 119 123 125 125 122 115 109 106 106 105 102 102 100 98 95 93 83 62 58 62 64 72 74 73 82 93 76 93 97 134 151 16 50 49 53
258 322 4 42 346 87 323 239 256 255 112 110 112 128 211 187 161 133 127 126 129 118 106 101 91 89 90 92 99 102 107 109 119 124 130 138 137 136 135 131 129 127 128 128 129 134 135 134 134 133 131 131 130 127 124 119 117 117 118 117 117 117 117 121 123 123 119 115 112 109 106 105 105 105 108 108 100 92 81 65 56 55 60 60 67 70 61 63 151 149 169 176 174 237 58 55 76
250 347 49 120 357 39 321 294 299 69 56 28 107 156 229 161 128 121 124 126 117 108 108 107 105 102 88 78 84 99 114 123 130 131 131 136 138 135 133 131 128 127 127 127 130 138 137 136 135 134 133 133 131 128 127 125 122 121 121 120 120 121 123 125 125 123 119 117 115 111 109 110 114 116 110 105 95 81 70 64 57 47 51 48 53 61 46 41 47 86 121 140 129 188 234 19 44
261 89 69 251 34 34 9 17 23 25 16 6 113 138 171 158 124 124 130 120 111 115 109 102 109 106 88 79 77 91 117 130 133 132 134 136 137 135 134 130 127 127 126 124 131 140 138 137 137 137 136 134 133 130 129 128 126 126 125 123 124 126 128 127 125 123 121 118 116 116 118 121 125 123 102 89 82 70 61 59 56 47 48 45 41 47 45 45 41 51 65 78 70 79 260 279 271
331 19 109 317 352 348 35 45 40 3 323 318 131 123 142 147 125 126 129 118 118 116 100 91 101 101 90 89 83 89 116 128 130 131 134 136 137 137 135 130 127 128 125 124 134 141 139 138 138 138 138 136 135 133 132 130 129 129 128 127 128 130 131 129 128 127 126 122 125 126 125 132 134 115 100 89 75 61 58 54 47 45 42 41 28 27 41 48 49 48 50 49 14 333 307 284 269
12 27 161 148 325 55 46 31 69 41 324 302 108 115 134 129 125 131 123 119 119 109 105 100 93 100 104 100 94 92 112 124 128 132 136 137 139 139 134 131 130 129 125 127 137 141 138 139 139 138 139 138 137 135 135 133 133 133 131 132 133 136 136 136 137 136 134 133 140 144 137 133 123 109 104 94 84 66 48 46 40 38 34 34 15 15 53 62 60 53 47 32 356 318 305 291 282
50 67 145 306 316 66 62 23 60 105 323 290 189 137 141 129 133 132 129 128 110 101 109 107 100 107 110 100 99 104 114 125 131 136 139 140 141 138 134 133 133 130 127 128 135 139 140 141 140 140 141 141 138 137 136 134 135 137 137 139 140 142 141 144 146 145 149 151 158 154 149 146 129 121 116 104 97 71 38 36 30 32 29 22 359 12 74 77 71 65 56 24 351 320 305 299 299
11 64 155 27 15 54 63 65 60 228 358 303 263 150 131 112 125 132 139 128 113 118 118 112 109 104 100 93 94 108 119 131 138 139 140 142 143 139 134 135 135 131 129 131 136 140 142 144 144 142 143 143 140 138 138 138 139 143 144 142 145 146 143 150 156 158 164 167 168 161 161 180 162 151 144 126 116 73 36 19 358 13 9 0 347 15 78 84 83 77 58 18 345 332 319 315 317
50 11 298 63 51 19 14 73 95 135 130 287 285 353 56 96 123 133 137 126 128 123 96 89 110 107 104 100 95 116 128 140 142 141 143 145 145 139 135 137 136 131 131 134 137 141 143 146 148 146 145 144 142 142 143 143 144 147 144 144 149 148 149 159 167 168 173 173 173 177 188 210 190 168 166 142 142 179 248 251 309 356 348 344 0 33 61 82 82 69 52 19 351 337 331 325 318
89 310 280 57 51 331 333 335 121 155 148 118 283 328 12 43 72 119 141 133 126 108 87 89 112 102 95 101 113 133 136 142 144 143 146 148 146 140 138 140 137 132 133 136 137 142 144 145 149 150 148 145 145 145 148 148 149 150 145 150 154 150 157 167 173 173 178 185 188 197 207 208 187 127 70 83 192 204 216 238 330 351 338 337 356 9 9 355 44 35 27 19 358 341 336 328 317
122 147 336 89 164 234 325 273 272 171 119 92 224 295 353 0 0 32 115 105 79 82 94 105 117 102 95 122 132 146 136 142 150 147 149 152 147 142 142 144 138 134 136 138 139 143 145 146 148 152 149 146 149 150 153 153 153 154 152 158 160 158 164 173 181 179 187 194 195 209 215 148 85 37 29 20 20 179 240 326 342 334 328 330 337 336 331 310 286 291 327 353 338 337 339 324 327
151 132 330 105 166 165 20 322 334 341 92 104 210 174 309 56 21 12 68 81 55 67 84 89 117 109 133 160 139 141 135 144 153 150 153 154 148 145 146 146 140 139 140 141 143 144 145 145 149 154 149 147 151 152 156 158 158 160 159 164 168 170 171 178 188 187 189 188 194 212 165 97 57 30 13 358 6 353 303 317 322 311 314 315 317 321 319 301 278 269 281 295 306 331 345 327 320
187 156 201 147 89 92 19 333 32 344 80 104 173 135 338 22 80 46 65 64 27 41 69 42 347 123 149 152 131 138 137 145 153 154 157 155 150 147 150 150 143 144 145 145 147 147 148 147 152 156 149 150 151 151 161 162 164 165 163 169 174 176 178 182 189 192 190 167 154 157 140 119 21 347 339 330 318 327 314 313 313 305 312 316 315 316 313 299 274 268 268 279 303 332 348 339 323
192 208 231 79 63 55 37 267 351 33 78 123 147 122 17 354 125 127 97 79 57 45 44 354 350 114 136 138 133 140 142 147 155 160 161 158 154 150 156 155 147 150 151 152 152 151 152 151 155 156 152 155 154 155 168 169 167 169 170 175 178 181 184 185 185 185 180 154 93 37 172 167 10 312 314 314 301 311 306 317 327 331 341 339 338 332 324 317 284 273 267 279 297 327 334 336 341
180 232 303 76 71 44 132 216 289 352 109 136 126 109 67 332 10 114 109 85 76 76 44 344 45 93 111 131 136 144 150 153 160 166 164 163 159 156 164 159 152 157 156 157 158 157 157 156 158 157 156 159 159 159 166 178 179 174 180 180 178 183 184 185 181 175 167 168 278 326 214 244 318 258 269 267 273 283 281 307 338 351 353 354 355 354 343 346 329 289 278 294 287 309 331 320 316
193 212 47 68 111 144 168 190 220 262 118 89 113 108 68 326 359 14 62 70 66 74 40 342 61 103 117 133 145 158 163 162 167 171 167 169 166 162 169 163 158 162 161 162 162 163 162 160 162 160 160 162 162 162 161 180 196 187 189 189 187 193 189 194 185 181 190 196 239 265 261 264 244 240 254 259 273 282 279 305 329 330 339 345 347 352 334 317 329 295 268 299 295 305 327 308 281
191 167 75 92 142 143 173 180 177 243 291 41 39 108 112 189 134 15 80 97 82 91 112 324 107 134 137 147 161 170 177 173 174 176 171 174 172 168 173 167 164 165 165 167 166 167 166 164 166 164 164 164 165 166 162 176 192 184 183 188 198 212 209 217 210 192 209 213 220 235 242 239 241 258 268 287 301 308 310 306 309 309 329 334 332 347 333 301 308 295 266 269 295 301 276 278 276
167 128 87 163 179 150 164 180 169 205 184 78 42 115 128 152 137 134 166 134 111 163 197 187 179 176 173 169 167 173 182 183 184 181 174 177 177 173 177 171 167 169 167 169 170 170 170 170 170 167 167 168 169 169 167 174 181 177 180 186 194 204 203 212 222 206 211 219 217 223 236 233 240 265 262 280 294 293 298 289 295 309 331 325 316 330 324 300 304 301 282 264 262 255 238 260 274
109 88 88 140 177 140 160 180 170 168 176 166 154 159 173 153 135 144 171 174 141 174 197 193 180 177 194 200 185 181 181 190 193 183 177 181 181 178 180 174 170 173 171 171 174 173 172 174 173 169 169 172 174 173 173 177 178 179 184 187 189 197 199 200 211 214 216 223 222 222 236 237 236 250 238 239 264 271 270 271 290 308 320 307 297 309 305 297 296 299 299 273 249 226 217 264 277
96 85 85 100 108 114 145 164 173 177 175 181 155 137 160 167 144 155 169 163 138 155 174 174 164 166 180 200 227 212 189 188 194 185 180 183 185 184 182 178 175 174 175 174 176 176 174 177 178 173 172 174 177 177 177 180 180 183 187 190 191 194 199 200 205 215 222 227 229 220 229 240 240 247 236 219 238 267 264 268 288 294 302 295 298 310 304 299 289 297 307 294 273 229 209 286 296
100 94 90 104 103 116 135 144 171 177 158 164 142 124 169 175 157 166 163 143 138 147 158 152 146 155 167 171 298 278 223 188 190 186 181 188 191 190 185 180 179 175 178 179 178 180 178 180 182 178 176 175 178 180 180 183 183 184 188 191 195 196 201 205 208 216 220 222 231 228 228 240 247 252 243 227 243 258 261 276 285 287 292 294 305 312 306 296 287 301 298 293 287 260 237 233 249
95 102 101 117 110 124 125 121 149 138 109 111 116 172 194 174 172 169 159 159 153 146 146 138 133 140 161 169 148 265 253 204 190 184 181 195 197 192 190 184 183 179 180 183 181 183 183 182 183 183 180 177 180 183 184 186 184 185 190 191 195 200 206 209 211 219 219 217 230 236 228 231 247 258 256 245 247 255 270 284 280 281 282 286 295 296 302 296 287 298 296 290 281 284 276 217 222
77 98 100 114 115 129 117 114 133 119 105 95 113 195 175 159 178 168 159 169 164 153 148 134 134 144 161 179 169 215 237 220 194 188 180 190 205 201 192 188 188 184 182 185 185 185 187 185 185 186 185 181 182 186 188 189 187 188 195 196 196 201 208 212 213 221 224 221 230 235 227 223 235 252 261 261 258 260 266 267 261 264 273 276 280 282 294 294 292 295 290 292 285 298 294 264 302
78 96 102 114 116 132 129 127 138 118 113 124 153 159 109 149 200 155 157 171 170 157 146 138 148 155 163 181 201 212 219 210 188 192 183 179 204 209 194 192 192 189 184 185 189 188 189 189 189 190 189 185 184 189 191 192 192 191 197 202 203 204 206 211 213 220 227 231 238 235 224 221 229 242 256 263 262 261 259 259 254 247 256 262 266 276 286 288 293 299 290 294 294 295 292 288 309
104 104 118 121 115 132 135 132 148 142 127 134 145 126 115 197 227 129 159 174 168 155 147 151 163 159 164 179 197 208 204 194 175 189 197 180 195 206 197 196 193 193 189 186 191 188 191 194 192 192 190 187 187 192 193 194 199 196 198 203 207 211 209 211 216 222 228 236 246 239 225 223 231 239 247 254 257 259 260 268 267 262 260 257 263 271 280 289 292 293 284 283 284 281 283 278 274
183 134 146 136 129 140 140 135 153 155 129 138 149 137 131 167 148 133 156 169 156 157 156 150 159 175 172 170 180 194 165 163 172 187 199 184 190 203 201 198 194 199 193 186 191 191 192 195 195 195 192 190 190 195 197 195 202 202 202 206 208 213 213 215 221 226 232 238 243 241 236 234 237 241 245 249 252 254 256 262 265 268 269 264 266 267 277 290 288 283 275 270 267 264 269 263 249
223 183 160 151 144 140 141 139 148 137 130 166 183 137 111 117 120 129 144 150 144 157 160 143 151 193 177 146 157 171 112 142 170 180 192 180 188 204 204 199 195 205 200 188 193 194 193 195 197 197 194 194 191 196 202 197 202 206 205 209 211 214 216 219 223 230 237 242 246 245 242 239 241 245 247 248 249 251 250 253 256 257 262 263 259 260 270 278 275 275 273 271 264 258 265 262 252
221 188 190 191 150 133 153 156 160 145 141 186 205 63 97 109 111 142 136 136 149 156 159 144 146 166 151 133 148 136 107 155 155 146 192 187 188 200 206 202 196 207 205 191 195 196 195 195 197 198 196 196 191 193 204 203 202 208 210 213 215 216 217 223 229 235 238 240 245 247 242 238 240 245 247 250 251 251 250 252 256 253 252 253 247 252 265 268 270 273 269 268 263 256 260 263 262
230 226 223 193 130 132 146 154 167 143 152 195 222 24 90 109 145 170 130 138 155 143 149 139 133 144 137 137 140 130 159 167 133 148 188 197 197 196 200 206 200 205 205 192 197 200 198 196 196 200 198 197 194 191 200 208 208 210 214 217 220 218 218 225 232 240 244 245 247 248 245 237 236 241 244 248 251 253 252 252 255 255 250 241 236 247 258 262 269 270 264 265 267 266 267 268 272
221 260 282 99 123 136 142 163 159 136 154 190 227 0 90 123 157 153 132 152 144 120 139 125 118 136 129 135 137 132 164 141 103 150 181 187 207 202 194 207 203 205 209 196 197 203 201 197 195 203 203 199 198 193 196 205 212 218 220 222 226 225 224 228 233 240 245 250 254 257 257 240 230 236 241 244 250 253 255 255 254 256 252 236 229 243 249 251 258 264 262 259 262 268 274 271 269
196 263 346 92 132 137 145 169 147 149 179 193 201 225 90 117 147 143 141 152 121 107 125 114 124 134 118 134 140 139 152 143 131 140 190 188 211 211 189 203 206 205 213 207 201 206 208 205 198 199 206 206 200 195 195 199 208 218 226 230 234 234 234 237 239 242 244 247 249 255 262 255 243 243 243 244 249 255 257 258 257 256 258 244 224 231 244 249 254 263 266 259 258 263 267 270 270
13 353 325 123 146 135 135 149 148 165 196 208 185 164 105 123 140 143 142 134 106 107 117 119 140 121 113 138 132 140 149 147 152 153 208 224 220 219 187 201 220 201 213 216 205 207 212 216 208 193 198 210 207 199 195 198 206 214 223 233 239 241 240 241 244 246 249 252 250 250 254 253 255 252 246 246 250 255 257 259 260 255 258 256 231 229 245 250 253 262 268 266 270 267 260 263 270
358 0 315 325 62 115 113 114 131 161 199 210 170 158 163 144 140 148 132 111 98 110 122 127 140 118 124 144 128 146 144 145 161 155 190 223 231 242 259 291 313 0 208 236 219 229 214 217 222 205 196 205 213 207 199 200 208 215 221 229 236 240 240 240 243 245 248 253 255 256 253 245 244 243 242 247 249 254 256 258 261 255 253 256 248 243 249 250 249 254 260 260 265 267 261 255 256
321 272 266 288 343 92 107 113 115 131 242 189 121 151 159 123 132 148 127 116 110 120 126 126 137 125 128 139 139 144 123 135 151 145 175 204 219 236 257 270 277 265 256 270 253 277 259 225 234 225 209 207 211 211 209 210 213 216 222 230 235 239 239 237 238 241 243 249 255 258 260 256 251 244 239 242 244 249 254 256 258 256 250 248 246 244 247 250 249 252 259 259 260 263 261 258 253
267 263 270 240 168 105 107 114 120 149 252 139 99 270 160 115 125 134 131 149 133 125 117 116 124 124 132 145 143 137 132 152 151 147 177 207 223 222 224 247 254 243 239 248 257 272 261 248 252 245 221 214 218 219 220 221 217 214 218 225 232 240 245 240 231 235 240 244 251 252 253 256 255 246 235 236 238 241 250 254 256 256 249 244 243 241 242 248 250 252 259 264 263 262 259 257 256
249 253 269 252 124 99 109 107 118 162 257 135 136 245 169 128 140 134 144 174 131 132 146 130 120 128 143 146 138 136 148 172 162 159 181 204 224 224 217 229 239 239 237 238 244 252 253 248 244 241 222 211 226 231 230 235 232 228 225 221 225 233 243 243 222 223 232 239 243 244 246 251 253 243 232 232 235 236 244 250 253 253 250 245 244 244 243 246 248 245 250 256 258 262 263 256 253
237 238 258 291 14 0 105 118 138 170 240 125 129 251 147 129 141 127 112 40 109 138 148 130 122 136 142 140 142 144 158 175 166 167 194 195 205 219 219 219 230 242 245 242 239 239 241 241 238 238 231 217 224 230 228 235 237 238 240 236 234 232 235 242 235 231 236 240 240 240 244 249 250 242 234 232 233 237 242 246 250 251 250 246 242 244 245 244 244 242 245 249 250 255 260 260 255
228 227 266 325 359 344 29 156 177 183 206 183 208 250 152 149 161 138 109 75 93 102 126 120 128 141 134 142 153 150 161 177 164 170 206 203 192 203 208 210 226 234 239 243 242 240 238 235 234 237 234 224 222 227 226 232 237 239 241 242 243 243 243 246 249 248 243 241 241 242 245 249 249 245 240 237 236 238 242 243 246 249 253 250 240 238 242 242 242 243 244 244 245 250 255 263 268
229 217 312 13 351 333 322 289 251 228 211 172 205 262 154 164 174 150 147 149 129 144 152 125 127 141 143 145 151 156 165 173 173 174 191 213 208 206 201 201 217 224 230 238 242 247 244 237 232 230 228 222 218 224 227 231 235 236 238 241 243 245 245 241 239 239 235 239 248 250 249 250 249 246 240 238 237 237 241 242 242 243 249 253 245 236 239 242 243 246 244 240 241 245 250 258 267
230 203 41 66 329 287 281 281 273 287 259 161 202 272 150 181 179 151 147 141 132 169 192 135 126 155 173 141 139 166 176 156 171 181 177 212 216 216 211 201 212 226 230 231 232 240 240 232 230 226 222 219 218 221 225 230 232 232 237 241 241 237 235 238 237 236 237 243 252 250 243 242 240 241 242 242 240 237 238 240 239 238 240 248 250 240 238 243 245 245 243 239 241 243 244 250 257
25 27 7 16 284 272 273 281 270 285 282 185 202 227 256 225 163 143 142 140 146 173 184 140 125 124 124 137 144 158 149 132 162 188 197 219 204 200 220 209 210 227 240 244 231 229 232 227 224 223 219 215 215 217 219 226 230 231 236 239 240 239 237 241 241 242 244 241 242 240 239 241 238 239 243 243 240 237 236 237 239 239 235 239 248 246 240 240 242 246 245 240 239 240 239 244 248
44 20 329 303 299 295 295 290 276 283 291 248 210 199 239 206 127 136 141 144 157 168 164 138 115 74 55 63 93 101 124 155 166 171 177 209 206 208 216 211 226 242 250 258 240 228 232 231 224 216 211 212 214 216 217 221 225 231 236 238 240 240 237 238 240 242 243 240 239 239 240 245 243 239 239 238 234 228 229 235 237 237 233 231 240 247 245 239 237 242 245 241 239 241 242 242 244
25 358 300 269 256 253 252 256 277 309 297 288 271 243 241 118 133 150 153 156 164 160 161 150 126 117 104 86 91 159 196 191 134 122 158 199 217 218 189 186 225 257 260 265 253 241 244 247 236 213 203 210 217 222 223 221 222 226 232 233 234 234 233 233 231 232 235 235 234 232 233 237 240 242 242 242 241 231 227 234 237 236 232 230 234 242 245 242 238 238 241 244 244 244 243 240 242
323 309 280 263 236 227 237 242 279 308 268 254 273 261 226 162 147 143 139 151 151 147 157 155 142 146 146 141 170 202 187 169 164 163 181 190 211 228 194 180 197 208 217 228 224 222 224 232 235 211 199 207 219 226 227 225 223 223 225 227 226 226 227 226 224 226 229 230 229 228 229 231 234 243 248 247 245 237 232 235 237 234 231 231 233 237 243 243 239 236 236 237 238 239 239 238 242
286 276 270 279 250 217 230 238 222 255 271 279 281 273 247 59 121 125 120 134 147 156 162 157 153 162 158 145 166 210 180 166 174 178 188 174 186 234 220 180 182 189 203 217 216 213 214 218 226 208 199 206 217 227 229 228 226 225 225 226 226 226 224 222 224 226 225 225 226 229 231 231 229 236 246 246 239 232 231 234 235 232 231 232 233 235 239 240 239 237 233 230 232 235 234 234 239
246 254 251 266 268 236 220 241 254 254 277 285 285 290 310 45 120 129 118 121 140 154 150 146 153 163 159 147 160 179 156 132 144 183 216 186 182 225 221 125 163 203 211 217 222 228 228 230 240 230 215 212 218 226 230 230 229 229 228 227 229 229 228 229 230 228 226 226 228 231 235 236 233 232 237 239 236 232 230 231 230 229 228 231 234 236 236 236 237 239 236 231 231 232 229 228 233
224 246 262 264 278 285 253 245 266 260 268 277 292 336 268 245 112 111 106 109 112 112 115 118 136 145 141 147 167 165 139 131 150 188 238 215 198 248 227 174 228 244 236 242 287 270 269 286 272 256 243 229 228 230 233 235 234 234 232 229 231 232 232 234 234 233 233 232 230 232 234 236 237 235 233 233 236 235 231 228 227 226 226 228 233 237 237 236 236 237 239 236 232 230 227 224 227
252 290 300 284 288 287 276 268 273 269 277 280 268 244 266 240 127 118 114 117 111 103 109 109 114 124 134 166 181 173 163 155 149 154 181 207 208 221 224 214 231 241 232 282 296 286 274 285 286 281 275 270 264 257 253 250 247 245 241 236 236 235 233 234 235 237 238 235 231 232 233 232 233 236 234 230 231 232 229 229 231 230 230 232 234 237 240 240 236 235 238 239 237 233 230 229 228
292 332 289 298 327 302 291 304 300 293 299 295 279 316 55 110 132 124 120 121 118 116 121 124 130 142 160 183 178 166 155 139 141 149 153 181 200 207 226 234 248 260 265 289 298 308 301 297 306 303 295 288 280 274 272 268 264 263 258 250 245 241 235 232 232 234 236 235 234 234 235 234 234 234 234 230 229 230 229 230 233 234 232 233 235 235 239 241 238 234 234 235 237 234 231 228 226
331 299 285 2 336 300 308 314 308 291 278 272 258 264 102 119 131 126 129 129 127 135 139 137 145 152 162 177 160 147 116 106 126 139 124 181 223 231 262 263 270 301 322 319 315 307 301 313 312 297 292 286 282 282 280 275 270 269 267 263 257 250 241 233 230 231 235 237 237 237 236 233 231 232 234 232 229 229 229 228 231 233 233 234 234 233 236 238 235 233 232 231 231 232 234 231 226
287 268 333 6 309 265 285 281 289 285 274 280 276 273 137 130 144 136 135 136 139 145 144 141 147 157 174 172 138 118 59 87 62 211 160 203 223 234 256 268 298 317 317 310 313 314 314 314 296 286 287 287 289 290 284 278 273 270 269 267 263 259 252 242 233 229 233 236 236 236 234 230 228 230 234 232 228 226 225 225 226 228 230 232 231 230 233 235 232 230 231 231 229 229 234 236 234
255 278 321 336 279 263 254 250 277 288 284 291 283 286 63 107 150 157 155 159 149 144 149 150 155 179 193 170 139 146 180 127 129 268 259 254 245 239 260 315 318 313 323 321 318 317 310 307 304 299 297 294 293 290 284 280 276 273 272 270 268 267 268 267 251 233 228 229 231 232 233 231 228 228 232 231 228 227 224 222 222 222 223 225 225 226 228 229 228 227 227 229 228 227 230 235 236
217 259 277 242 241 275 265 275 300 293 292 301 293 298 59 71 104 153 172 186 156 151 153 148 172 216 193 160 143 153 156 133 202 279 299 297 285 296 335 330 317 321 329 320 316 316 310 316 322 315 302 296 293 291 288 285 281 278 276 274 274 273 276 284 280 253 234 229 230 231 232 232 229 228 230 230 228 228 225 221 220 220 221 222 222 222 224 225 225 224 223 225 226 223 225 230 233
188 246 285 267 280 293 263 270 271 267 278 281 290 303 92 71 63 105 69 33 143 153 149 140 237 239 145 116 109 116 123 119 303 297 296 299 324 345 329 321 330 335 323 315 319 320 315 318 318 309 302 297 293 291 290 289 287 284 282 279 277 278 279 281 284 275 252 236 230 229 231 233 231 227 226 227 229 230 228 225 223 220 221 222 222 221 221 221 221 220 219 221 224 222 221 224 226
322 300 324 317 309 310 298 285 269 272 284 285 291 306 85 72 54 76 54 35 72 115 128 147 210 90 92 98 103 105 111 316 312 302 301 324 350 327 313 327 336 320 313 316 320 317 313 313 310 304 302 297 293 292 290 291 290 287 285 283 281 281 284 283 281 280 268 248 236 233 234 233 228 225 225 226 228 231 230 227 224 221 218 218 219 219 218 217 217 217 217 219 221 221 220 219 219
Height
750 752 752 754 752 755 757 760 780 781 780 789 781 781 777 763 763 762 763 759 754 749 739 738 737 739 746 751 752 752 755 761 765 770 784 777 768 774 775 778 782 784 787 789 792 794 796 798 800 802 803 805 806 807 809 810 811 812 813 814 814 816 816 817 818 818 819 819 819 819 820 820 820 820 820 820 820 820 820 821 822 823 822 822 822 822 822 822 822 821 821 821 821 820 820 820 820
752 754 753 755 753 761 764 762 784 788 788 798 786 781 773 762 768 769 762 758 755 745 734 733 734 736 738 740 743 753 759 755 753 758 765 765 768 773 774 779 780 783 786 789 792 794 796 798 800 802 803 805 806 808 809 810 811 812 813 814 815 816 816 818 818 819 819 819 819 820 821 820 821 821 820 821 820 820 821 821 822 823 823 822 823 823 822 822 822 822 822 821 821 820 820 820 820
754 755 755 757 756 762 766 770 787 791 796 803 791 779 771 770 773 771 758 748 744 736 734 735 737 737 740 748 750 760 766 756 751 755 761 765 767 771 775 778 779 783 785 789 792 793 796 798 800 802 803 805 806 808 809 810 811 812 813 814 815 816 817 818 818 819 819 819 820 820 821 821 821 821 821 821 821 821 821 821 822 823 823 823 823 823 823 823 822 822 822 821 821 821 820 820 820
754 756 755 757 761 767 773 781 785 785 794 797 793 780 772 776 770 763 752 742 737 733 736 739 746 740 743 758 754 759 766 758 754 755 761 765 766 770 774 777 780 783 785 789 791 793 796 798 800 802 803 805 806 808 809 810 812 812 814 815 816 816 817 818 819 819 819 820 820 821 821 822 822 822 822 822 822 821 821 821 821 822 822 823 823 823 823 823 823 822 822 822 821 821 820 820 820
755 757 756 758 768 774 777 783 779 780 788 784 787 782 774 772 761 753 745 739 734 734 738 742 753 744 741 751 750 761 765 759 757 754 759 763 766 770 773 776 779 782 786 788 790 793 795 798 800 802 804 805 806 808 809 811 812 813 814 815 816 817 818 818 819 819 820 820 820 821 821 822 822 822 822 822 822 821 821 821 821 822 822 823 823 823 823 822 822 822 822 821 821 821 820 820 820
755 757 755 757 765 771 781 788 783 783 780 774 781 781 771 761 751 748 743 738 734 734 737 742 751 749 750 746 743 753 755 756 758 755 757 762 767 770 773 776 778 782 785 788 790 792 795 798 800 802 804 805 807 808 810 811 812 814 815 816 817 818 818 819 819 820 820 820 821 821 822 822 822 822 822 822 822 822 822 821 822 822 822 822 822 823 822 822 822 822 821 821 821 820 820 820 820
756 760 760 764 768 770 789 797 792 790 780 775 777 773 767 756 747 748 746 744 742 738 738 742 743 752 760 751 748 747 745 752 753 755 758 762 767 769 773 775 778 782 785 788 790 792 795 798 800 802 803 805 807 808 810 811 813 814 815 816 817 818 819 819 820 820 820 821 821 822 822 822 822 823 823 822 822 822 822 822 822 822 822 822 822 822 822 822 821 821 821 821 821 820 820 819 819
757 764 765 775 781 778 792 798 796 793 782 775 769 764 762 754 747 748 750 750 750 745 745 745 741 758 764 753 759 751 743 751 751 757 760 762 768 770 773 775 778 781 785 787 789 792 795 798 800 802 803 806 807 809 810 811 813 814 815 816 817 818 819 820 820 821 821 821 822 822 822 822 823 823 823 823 823 822 822 822 822 822 822 822 822 822 822 822 821 821 820 820 820 820 819 819 819
755 763 767 780 787 786 793 797 795 792 785 777 767 760 755 749 747 749 752 752 749 748 750 748 746 763 765 757 763 752 745 752 753 758 761 765 768 769 773 775 778 781 784 787 789 793 795 798 800 802 804 805 807 809 810 812 813 814 816 816 818 818 819 820 820 821 821 822 822 822 823 823 823 823 823 823 823 823 822 822 822 822 822 822 822 821 821 821 821 820 820 820 820 819 819 819 818
757 761 770 782 786 792 799 797 795 792 787 779 768 758 751 748 748 749 753 755 751 752 752 746 750 760 763 764 763 753 751 753 755 760 762 766 768 770 773 775 779 780 784 786 790 792 795 798 799 802 804 805 807 809 810 812 813 814 816 817 818 818 819 820 820 821 821 822 822 822 823 823 823 823 823 823 823 823 822 822 822 822 822 822 821 821 821 820 821 820 820 820 819 819 819 818 818
765 764 769 784 791 798 800 796 794 791 786 780 770 755 748 747 748 750 751 755 753 754 751 749 758 761 763 768 762 753 753 755 757 761 763 767 768 770 773 776 779 781 784 786 790 792 794 797 799 802 803 805 807 808 811 812 813 814 815 816 818 818 819 820 820 821 821 822 822 822 823 823 823 822 823 823 823 823 822 822 821 822 821 821 821 821 820 820 820 820 820 819 819 819 818 818 817
771 773 772 788 798 800 794 792 791 787 785 783 775 758 750 748 750 755 753 756 756 755 754 755 760 759 769 773 762 754 753 758 759 761 765 767 769 771 774 777 779 782 785 787 790 792 794 797 799 801 803 805 806 809 810 812 814 814 816 816 817 818 819 820 820 821 821 821 821 822 822 822 822 822 822 822 822 822 822 821 821 821 820 820 820 820 820 820 820 819 820 819 819 818 817 817 816
771 776 777 788 794 795 791 788 786 783 785 782 774 761 755 754 756 756 752 755 759 763 761 757 755 759 774 774 762 756 755 758 760 763 765 767 769 771 775 777 780 783 785 788 790 792 794 796 798 801 803 805 806 808 809 811 813 814 816 816 817 818 819 820 820 820 820 821 821 821 821 822 822 822 822 822 822 822 821 821 820 820 820 820 819 819 819 819 819 819 819 818 818 817 817 817 816
766 771 777 789 790 788 788 787 784 784 785 776 767 760 758 762 759 752 754 762 764 765 761 752 753 766 776 774 769 761 757 758 760 764 765 768 769 771 775 777 780 784 786 789 790 792 794 796 798 800 802 804 806 808 809 811 812 814 815 816 817 818 818 819 819 820 820 820 820 820 821 821 821 821 822 821 821 821 821 821 820 820 819 819 819 818 818 818 818 818 818 818 817 817 817 817 816
760 766 775 788 787 785 785 784 783 784 782 772 763 759 761 760 754 754 761 770 769 760 757 753 753 769 778 777 776 763 756 759 761 764 766 768 769 772 776 777 781 784 787 789 791 793 794 796 798 800 801 803 805 807 809 810 812 813 814 816 816 817 818 819 819 819 819 820 820 820 821 821 821 821 821 821 821 821 821 821 820 820 819 819 818 818 818 818 818 818 817 817 816 816 816 816 816
752 762 776 785 786 788 786 781 782 785 779 769 760 759 766 762 757 766 764 764 771 763 763 766 757 764 771 770 768 757 756 760 761 765 766 768 770 773 776 777 781 784 787 790 791 793 794 797 798 799 801 803 805 807 809 810 811 813 814 815 816 817 817 818 819 819 819 820 820 820 820 821 821 821 821 821 820 821 820 820 820 820 819 818 818 817 817 817 817 817 817 816 816 816 816 815 815
750 762 779 785 787 790 786 780 781 783 776 767 761 761 771 770 763 765 759 762 777 773 768 770 760 758 763 762 760 756 758 760 762 765 765 768 769 772 776 777 781 784 787 789 791 793 795 797 797 799 801 804 806 807 809 809 811 812 813 815 815 816 816 817 818 818 819 819 820 820 820 820 820 820 821 820 820 820 820 820 820 819 819 818 818 817 817 816 816 816 816 816 815 815 815 815 815
759 770 778 784 787 783 778 777 774 773 771 767 763 765 772 775 770 761 760 770 777 776 773 770 763 759 759 758 758 758 759 761 762 764 765 767 769 772 774 776 780 783 786 788 791 793 794 796 797 799 801 804 806 807 809 809 811 812 813 814 815 816 816 817 817 818 819 819 820 820 820 820 820 821 820 820 820 820 820 819 819 819 818 818 817 817 816 816 816 816 815 815 814 814 815 815 814
763 771 778 782 778 772 767 769 769 768 768 764 762 768 774 777 776 768 772 781 774 777 780 774 771 766 761 759 759 760 760 761 762 762 765 766 768 771 773 775 779 782 784 787 790 792 794 796 797 799 801 803 805 807 808 809 810 811 813 814 814 816 816 817 817 818 818 819 819 819 820 819 820 821 820 820 820 819 819 818 818 818 818 817 817 817 816 816 815 815 814 814 814 814 815 814 814
757 764 781 779 767 765 763 763 766 765 764 765 765 768 776 779 776 774 781 785 779 781 781 779 780 772 766 762 760 761 761 761 762 762 764 766 768 770 772 774 777 780 783 786 788 791 793 795 797 798 800 802 804 806 808 809 809 811 812 813 814 815 815 816 817 817 818 819 819 819 819 819 820 820 819 819 819 819 818 817 817 817 817 816 816 816 816 815 815 814 813 813 813 813 814 813 813
748 754 773 769 758 764 762 759 762 762 762 766 768 768 774 774 771 775 778 784 787 783 776 775 777 772 768 764 760 761 762 762 762 762 764 766 768 770 772 773 777 780 782 785 787 789 791 793 795 797 799 801 803 805 806 808 809 810 812 813 814 814 815 816 816 817 817 818 818 819 819 819 820 819 819 818 818 818 817 817 816 816 816 815 816 815 815 815 814 813 812 812 812 812 813 813 813
745 750 756 755 753 761 759 755 759 760 761 764 767 770 771 768 768 773 775 782 783 776 770 768 769 768 767 764 762 761 762 764 763 762 764 766 767 769 771 773 776 779 781 783 785 787 790 792 794 796 798 800 802 804 805 807 808 810 811 812 813 814 815 815 816 816 816 817 817 818 818 819 819 818 818 818 818 817 816 816 816 816 815 815 815 815 814 814 814 813 812 811 811 811 812 812 812
747 752 747 749 749 754 753 750 755 756 759 762 762 764 764 767 769 767 770 774 769 763 763 763 764 765 765 764 764 764 764 764 763 761 763 765 766 768 770 772 774 777 780 782 783 786 788 790 793 794 796 798 801 802 804 806 807 808 810 811 812 813 814 814 815 815 815 815 816 817 817 818 818 817 817 816 817 816 816 816 816 816 815 815 814 814 814 814 813 813 812 811 811 810 810 810 811
741 753 749 748 746 748 747 745 750 749 754 756 753 758 762 766 769 763 765 765 759 757 757 760 763 763 765 766 767 771 767 762 762 761 763 764 766 767 768 770 773 775 778 780 782 784 786 789 791 793 795 797 799 801 803 804 806 807 809 810 811 812 813 814 814 815 815 815 815 816 817 817 817 816 816 816 816 815 815 815 815 815 815 814 814 814 814 813 813 812 812 811 810 810 809 809 810
735 747 747 745 746 745 742 743 747 746 749 751 753 761 762 759 760 762 764 760 754 754 754 758 763 764 766 769 775 779 772 764 761 760 763 764 764 765 767 769 771 774 777 779 781 783 785 787 789 791 793 795 798 799 801 803 804 806 807 809 809 811 812 813 813 814 815 815 815 815 816 816 816 816 815 815 815 815 815 815 815 815 814 814 813 813 813 813 813 812 812 811 810 809 808 808 808
732 737 743 744 747 743 742 745 747 747 748 752 760 763 757 750 754 762 760 755 752 751 754 759 763 767 767 770 778 779 773 768 764 760 762 765 765 763 764 767 769 772 775 777 780 782 784 786 788 790 792 794 796 798 800 802 803 804 806 807 808 809 811 812 812 813 814 814 814 813 814 815 815 815 815 814 814 814 814 814 814 814 814 813 813 813 812 812 812 812 811 810 809 809 808 808 807
723 730 739 741 746 743 743 747 747 748 749 752 761 763 756 747 754 766 758 749 750 750 756 758 761 768 767 769 777 777 772 768 765 762 760 763 765 762 762 765 767 769 773 776 778 780 782 784 786 788 790 792 794 797 798 800 802 803 805 806 808 808 810 811 811 812 813 813 813 812 812 813 814 814 814 814 814 814 813 813 812 812 812 812 812 812 812 812 811 812 811 810 809 808 808 807 807
718 727 740 741 743 745 744 748 749 749 753 750 753 760 758 753 757 763 753 744 746 750 758 760 760 764 765 768 773 773 769 764 764 764 761 760 762 761 762 764 766 768 770 773 776 778 781 782 784 787 789 791 793 796 797 799 801 802 804 805 807 808 809 810 810 811 812 812 812 812 811 811 813 813 813 813 813 813 812 812 812 811 811 811 811 811 811 811 811 811 811 810 809 809 808 807 807
718 724 745 750 746 751 748 747 748 749 755 748 750 767 767 762 760 753 745 741 743 750 758 762 761 759 759 761 762 763 762 761 762 763 760 758 760 761 761 763 765 767 767 771 774 776 779 781 783 785 787 790 792 795 796 798 800 801 803 804 806 807 808 809 809 810 811 811 811 811 811 811 811 812 812 812 812 812 812 812 811 811 811 810 810 810 810 810 810 810 810 810 809 808 808 807 806
722 723 739 750 755 762 750 744 747 749 754 744 753 779 778 764 755 745 741 740 745 753 755 761 766 761 757 758 758 758 758 759 758 759 758 757 760 761 760 762 764 765 765 769 773 774 777 779 781 783 785 788 790 794 796 797 799 801 802 803 805 806 807 808 808 809 809 810 810 810 810 810 810 811 812 812 811 811 811 811 810 810 810 809 809 809 809 809 809 809 809 809 808 808 807 806 805
724 729 735 743 763 770 749 742 747 752 752 740 754 780 775 762 753 743 738 739 747 754 754 757 765 763 759 759 759 759 757 756 756 758 758 757 759 760 761 761 763 765 764 767 771 773 775 777 779 781 783 787 789 792 794 796 798 800 801 802 803 804 805 807 807 808 808 808 809 809 809 809 809 810 811 811 811 810 810 809 809 808 808 808 808 808 808 808 808 808 808 808 807 807 806 805 804
724 740 747 740 757 769 751 741 744 753 752 739 754 775 770 759 752 740 736 740 745 752 753 753 760 762 761 761 760 761 759 755 756 758 758 758 759 759 761 762 763 764 764 767 769 771 773 775 778 780 782 785 787 790 793 796 797 799 800 801 802 803 804 805 806 806 806 806 807 807 807 806 807 808 809 810 810 810 809 808 808 807 807 806 807 807 807 807 807 807 807 807 806 806 805 804 803
728 739 749 742 752 766 759 746 736 743 750 744 752 768 767 757 746 737 735 739 743 751 754 754 760 762 761 762 761 762 762 759 759 759 758 759 760 759 761 762 763 764 765 766 768 769 771 773 776 779 781 783 786 789 791 794 796 798 799 800 801 801 802 803 804 804 805 805 805 805 805 805 805 806 808 809 809 809 808 808 807 806 805 805 805 806 806 806 806 806 806 806 806 805 805 804 803
738 736 741 741 747 758 762 756 739 736 747 749 749 757 760 752 742 737 734 736 742 752 757 757 760 762 762 762 762 763 763 763 762 760 760 760 761 760 761 763 763 765 766 766 768 770 770 772 774 777 780 782 784 787 790 792 795 797 798 799 799 800 800 801 801 802 802 803 803 804 804 805 805 806 807 808 808 808 808 807 806 805 804 803 803 804 805 805 805 805 805 805 805 805 804 804 802
745 744 743 742 740 748 757 756 742 736 745 748 749 756 755 748 742 738 733 733 742 751 757 759 757 759 764 763 763 765 763 764 762 761 762 762 762 762 762 764 765 765 766 766 767 769 770 772 773 775 778 781 783 785 787 790 793 795 796 797 798 798 798 799 800 800 800 801 801 802 803 803 804 805 806 807 807 807 807 806 805 804 803 803 802 803 804 803 803 803 803 803 803 803 803 803 802
742 742 741 742 739 741 744 743 734 732 744 748 749 756 753 748 745 740 735 733 741 749 752 758 758 759 764 764 765 765 765 765 762 762 764 764 764 764 764 765 766 766 766 767 768 769 770 772 773 775 777 780 782 784 786 788 790 792 793 794 795 796 796 797 798 798 798 799 800 800 800 800 802 803 804 805 806 806 806 805 804 803 803 802 801 802 802 802 801 801 802 802 802 802 802 802 801
735 738 738 737 738 740 736 737 732 726 743 748 743 749 747 745 744 738 736 736 742 748 750 756 759 760 763 764 766 766 766 765 762 764 765 764 765 765 766 767 767 767 767 768 769 770 771 772 774 775 776 779 781 783 785 786 787 788 789 791 792 793 794 795 795 796 796 797 798 798 798 798 799 799 801 802 803 804 805 805 804 803 802 801 801 801 801 801 800 800 800 800 800 800 800 800 799
735 738 738 733 735 738 731 732 732 725 741 748 741 747 747 743 742 736 735 739 745 748 751 757 759 760 762 763 765 766 765 763 761 763 762 763 765 765 767 768 768 768 768 770 770 771 772 773 774 775 776 778 780 782 783 784 784 784 784 785 787 790 791 792 792 793 794 795 796 797 796 796 796 797 798 799 800 801 803 804 803 802 801 800 800 799 799 799 798 798 798 799 799 799 798 797 797
737 736 736 735 730 731 731 730 729 728 740 747 743 747 747 740 738 736 735 738 741 743 747 754 757 760 763 763 764 765 765 764 762 762 761 762 764 765 767 768 769 769 769 770 770 771 772 773 774 775 776 778 780 782 782 781 780 780 782 784 785 787 788 789 790 790 792 793 794 795 795 795 795 795 796 798 797 797 799 802 802 801 800 799 799 798 798 798 797 797 797 797 797 797 796 795 794
736 734 737 738 728 732 745 740 732 730 734 740 742 745 746 742 739 738 737 734 735 736 738 744 752 757 759 760 762 763 765 765 763 762 760 760 763 765 766 767 769 771 770 770 770 771 771 772 774 775 777 778 780 781 780 780 778 779 782 784 785 786 786 787 788 789 789 790 791 792 793 793 794 794 795 796 795 794 796 799 800 799 798 797 797 797 796 796 796 796 796 796 795 795 794 793 792
733 728 732 736 731 732 740 736 729 729 731 733 741 753 754 749 749 748 741 737 738 737 736 743 750 752 753 757 759 761 762 761 762 763 760 759 762 764 764 766 769 770 770 770 771 771 771 772 774 775 776 778 779 780 779 778 778 780 782 783 784 785 785 786 787 787 787 788 789 789 790 791 792 792 793 793 793 792 794 796 797 797 796 796 795 795 795 795 795 794 794 794 794 794 793 792 790
733 725 723 727 731 732 732 730 730 741 747 736 740 768 771 751 750 754 747 746 748 744 741 746 751 751 751 757 761 761 761 760 760 762 762 762 762 763 764 765 767 768 769 769 770 772 773 773 774 775 776 777 778 778 778 777 777 780 781 782 783 784 785 786 786 786 786 787 788 787 788 789 789 790 790 790 790 790 792 793 794 795 794 794 793 793 793 793 793 792 792 792 792 792 792 791 790
739 725 715 720 728 732 734 732 737 751 754 736 731 762 777 759 752 753 749 753 755 751 748 746 749 752 751 754 759 761 761 761 761 761 761 761 762 763 763 764 765 766 767 768 769 770 771 772 773 774 775 776 777 777 776 776 776 778 780 780 781 783 784 784 784 785 785 786 787 788 788 788 788 787 787 787 787 788 789 790 790 791 791 791 791 791 791 791 791 790 790 790 790 791 791 790 789
741 722 715 723 727 731 733 732 739 741 738 734 727 741 766 766 756 749 748 759 762 756 753 750 750 753 752 753 755 758 760 761 763 763 760 759 760 761 762 764 765 765 767 768 768 769 769 769 770 771 773 774 775 775 775 775 776 777 778 779 779 780 781 782 782 782 782 783 785 787 787 786 785 784 784 784 784 784 785 786 787 787 788 788 789 788 788 788 788 788 788 788 788 788 788 788 788
731 718 717 722 724 729 729 732 738 731 737 751 735 730 759 769 756 748 752 763 768 762 756 754 755 755 755 755 755 756 759 760 760 763 762 760 760 761 762 763 762 762 765 767 768 768 767 767 767 768 769 771 771 772 773 773 774 774 775 776 777 778 779 779 780 779 778 779 780 781 781 782 782 781 781 781 781 781 782 783 783 783 783 784 786 786 785 785 785 786 786 786 786 786 786 787 786
718 714 718 719 721 725 726 734 737 735 752 765 742 729 756 774 762 754 760 766 767 763 757 754 754 755 757 759 758 757 757 757 758 762 763 760 759 760 761 762 760 759 761 765 767 767 767 766 765 765 766 767 768 769 769 770 771 772 772 773 774 775 776 777 778 776 776 776 775 774 775 776 777 777 777 778 778 778 779 780 780 779 779 780 782 783 783 783 782 783 783 783 784 784 784 785 785
713 718 724 724 723 722 726 730 733 753 769 759 739 726 742 771 769 755 758 757 754 757 757 754 753 755 757 759 758 756 755 756 759 761 761 759 758 758 759 759 759 760 763 766 767 768 769 767 764 764 763 765 766 766 766 767 768 769 769 770 772 772 774 774 774 773 773 773 772 771 771 771 771 772 773 774 775 775 776 778 777 776 776 777 779 780 780 780 780 780 781 781 782 782 782 783 783
717 725 730 737 736 731 739 739 742 772 779 750 731 721 732 766 771 753 748 742 739 748 753 753 755 755 755 755 756 754 753 755 757 760 759 757 758 757 756 757 758 762 766 766 765 764 765 763 761 761 761 763 764 763 764 764 766 767 767 768 768 769 770 770 768 768 768 768 767 768 768 767 767 768 769 770 771 771 772 774 774 772 772 774 775 777 778 778 778 778 778 778 779 779 780 781 781
723 729 735 752 759 757 767 768 763 774 768 739 724 727 741 759 757 744 740 738 737 740 741 745 750 752 751 751 752 751 751 755 757 759 759 757 758 756 754 755 757 759 761 760 759 758 758 757 757 758 759 760 761 761 762 762 763 764 764 765 765 765 765 764 763 763 763 762 762 765 766 766 765 765 765 766 766 767 768 769 769 768 768 770 772 774 775 775 776 775 775 776 776 776 777 778 779
727 730 738 757 769 780 788 782 775 773 759 733 720 734 752 753 747 740 738 739 737 735 737 741 744 746 747 747 747 748 749 754 756 757 758 757 757 756 755 756 757 757 756 755 755 755 756 756 756 756 757 758 759 760 760 761 761 761 761 761 761 761 760 759 759 758 757 759 761 764 765 764 762 761 762 762 762 763 765 765 765 765 765 767 768 770 772 773 773 773 773 773 774 774 775 776 776
723 716 725 745 755 771 782 777 776 772 756 737 729 741 753 755 751 739 732 735 735 736 739 740 743 744 745 746 746 747 748 749 753 755 757 758 757 757 757 757 757 756 755 755 755 754 755 755 755 756 757 757 758 758 758 758 758 758 758 758 757 756 755 754 754 753 754 757 760 760 758 757 757 757 759 759 760 760 761 761 761 761 762 764 766 767 769 770 771 771 771 771 772 772 773 773 774
723 710 725 743 739 744 757 759 757 756 758 752 743 743 743 743 743 731 730 737 737 741 743 742 747 746 745 749 747 746 747 746 750 753 755 757 756 757 757 756 755 753 753 754 753 754 754 754 755 755 756 757 756 757 757 756 756 755 755 754 753 752 751 750 750 750 751 753 754 753 752 752 754 755 755 755 755 756 757 757 757 757 759 761 763 765 766 767 768 769 769 769 769 770 771 771 772
730 727 736 733 720 728 751 759 747 749 769 763 744 745 746 746 748 735 735 744 743 745 746 745 748 746 747 750 748 748 748 747 749 750 753 755 755 756 756 754 753 752 752 753 753 753 753 753 754 755 755 755 755 755 755 754 754 753 752 751 749 748 746 746 746 747 748 748 749 749 749 750 752 752 752 751 751 752 753 753 753 754 756 757 760 762 763 765 765 766 766 767 767 768 769 769 770
734 741 731 718 718 724 743 767 766 765 778 763 742 748 755 765 768 748 740 749 749 746 745 745 747 747 749 749 749 751 749 748 750 749 751 753 752 754 753 752 752 751 752 752 752 752 752 752 753 753 753 753 754 754 753 753 752 751 750 748 746 744 743 742 743 744 743 743 744 745 745 747 748 749 749 749 749 750 749 750 750 752 753 754 756 758 760 761 762 763 763 764 765 766 767 767 767
722 727 715 723 748 749 747 764 775 777 782 769 750 746 753 765 766 753 748 750 748 746 744 745 747 747 748 747 749 752 750 750 752 750 750 750 749 750 750 751 751 751 751 751 751 751 751 752 751 751 752 752 752 752 751 751 750 749 748 746 744 742 740 739 740 740 738 738 739 740 740 741 742 744 746 746 746 747 747 747 747 749 750 751 753 754 756 758 758 759 760 761 762 763 764 764 765
713 717 713 721 739 748 748 752 759 770 780 776 764 757 761 759 747 745 748 741 740 747 746 745 746 743 743 745 747 750 751 752 753 752 751 748 747 747 748 750 750 750 752 751 751 751 750 751 750 750 751 750 750 750 749 748 747 747 745 744 742 740 739 738 737 737 735 734 735 735 735 736 737 739 741 742 743 744 744 743 744 745 746 748 749 750 752 754 755 756 756 758 759 759 761 761 762
726 733 732 730 728 731 739 741 741 754 770 776 773 771 768 751 733 739 744 735 733 740 743 746 744 739 739 743 748 751 753 754 753 752 751 748 747 748 749 750 750 751 752 751 751 751 750 750 750 750 749 749 748 748 747 746 745 744 743 742 740 739 738 737 736 735 734 733 733 732 731 731 733 735 736 738 739 739 740 740 740 741 742 744 745 746 748 749 751 752 752 754 756 756 757 758 759
728 736 737 740 738 739 755 760 744 738 752 760 765 773 770 747 733 738 742 738 736 735 740 745 742 740 744 746 749 752 754 754 753 751 750 748 748 750 750 750 751 751 751 751 751 751 750 750 749 749 748 747 747 745 745 744 743 742 741 739 738 737 736 735 734 733 732 731 730 728 728 727 728 730 732 734 735 735 736 736 736 737 737 739 741 742 744 745 746 748 749 751 752 753 754 755 756